Location: Mountain Grove
(34.0887°N, 86.6172°W)
Time: 21:53:18
(UTC+00:00)

Cosmos 2322 Rocket - Pass Details

Date: 14 July 2020
Orbit: 832 x 851 km, 71.0° (Epoch: 08 August)

Event Time Altitude Azimuth Distance (km) Brightness Sun altitude
Rises 09:35:09 0° 345° (NNW) 3,404 5.7 -13.2°
Reaches altitude 10° 09:37:41 10° 350° (N) 2,469 5.0 -12.8°
Maximum altitude 09:43:11 51° 66° (ENE) 1,060 3.2 -11.9°
Drops below altitude 10° 09:48:41 10° 141° (SE) 2,466 4.7 -10.9°
Sets 09:51:11 0° 147° (SSE) 3,400 5.3 -10.5°
